Retour au catalogue

SL-8 R/B

ActifLEO
NORAD 15625·ROCKET BODY·🇷🇺 Russia

Lancé Mar 21, 1985 depuis Plesetsk Cosmodrome

Loading…

Prochains Passages (prochaines 24 heures)

TLE

FraisSource: Space-Track

Époque: Sep 14, 2026, 07:55 UTC

1 15625U 85023J   26257.33048631  .00000069  00000-0  78653-3 0  9994
2 15625  74.0517 269.6795 0147030 306.8992  61.9795 12.19919196727495

Suivez SL-8 R/B en temps réel avec AllMySat

Download on the App Store